Regional Weather Roundup
Issued by NWS

Home | Current Version | Previous Version | Graphics & Text | Print | Product List | Glossary Off
Versions: 1 2 3 4 5 6 7 8 9 10 11 12 13 14 15 16 17 18 19 20 21 22 23 24 25 26 27 28 29 30 31 32 33 34 35 36 37 38 39 40 41 42 43 44 45 46 47 48 49 50

000
ASUS43 KTOP 221459
RWRKS

WEATHER ROUNDUP FOR KANSAS
NATIONAL WEATHER SERVICE GOODLAND KS
900 AM CST MON DEC 22 2014

NOTE:  "FAIR" INDICATES FEW OR NO CLOUDS BELOW 12,000 FEET WITH NO
SIGNIFICANT WEATHER AND/OR OBSTRUCTIONS TO VISIBILITY.

KSZ001>006-013>018-027>032-041>047-221600-
NORTHWEST KANSAS

CITY           SKY/WX    TMP DP  RH WIND       PRES   REMARKS
GOODLAND       CLOUDY    38  29  70 NW24G31   29.70R WCI  27
HAYS           CLOUDY    43  28  56 NW15G23   29.61R
HILL CITY      MOCLDY    40  32  73 NW10      29.63R WCI  33
RUSSELL        CLOUDY    42  39  89 NW14      29.58R
$$

KSZ061>065-074>080-084>089-221600-
SOUTHWEST KANSAS

CITY           SKY/WX    TMP DP  RH WIND       PRES   REMARKS
DODGE CITY     MOSUNNY   42  29  59 NW18G30   29.65R
ELKHART          N/A    N/A N/A N/A MISG        N/A
GARDEN CITY    PTCLDY    40  29  64 NW16      29.68R WCI  31
GREAT BEND     MOSUNNY   43  34  70 NW13      29.60S
LIBERAL        MOSUNNY   39  30  70 NW17      29.72S WCI  30
$$

KSZ066>073-081>083-090>101-221600-
SOUTHEAST KANSAS

CITY           SKY/WX    TMP DP  RH WIND       PRES   REMARKS
CHANUTE        CLOUDY    45  44  97 S8        29.58F FOG
COFFEYVILLE    LGT RAIN  46  45  96 S6        29.59S FOG
HUTCHINSON     CLOUDY    45  43  93 W9        29.57R FOG
MEDICINE LODGE   N/A     43  39  86 NW13      29.59R
NEWTON         CLOUDY    45  39  81 SW8       29.57S VSB 1/2
PARSONS        CLOUDY    46  46 100 SE3       29.59F FOG
WICHITA INTL   FOG       46  44  93 SW6       29.56S VSB 1/2
WICHITA JABRA  CLOUDY    45  44  97 S6        29.56S FOG
WICHITA MCCONL FOG       45  45 100 S6        29.56R VSB 1/2
WINFIELD       CLOUDY    45  45 100 S7        29.57F FOG
$$

KSZ007>012-019>026-033>040-048>060-102>105-221600-
NORTHEAST KANSAS

CITY           SKY/WX    TMP DP  RH WIND       PRES   REMARKS
CONCORDIA      CLOUDY    42  40  92 NW13      29.52S
EMPORIA        CLOUDY    43  43 100 S10       29.55F FOG
LAWRENCE       LGT RAIN  43  41  93 S7        29.58S FOG
MANHATTAN      LGT RAIN  44  44 100 SW9       29.53F FOG
OLATHE IND     CLOUDY    42  41  96 SE9       29.58F FOG
OLATHE EXE     CLOUDY    42  41  96 SE10      29.57F FOG
SALINA         CLOUDY    44  39  82 NW12      29.56R
TOPEKA BILLARD LGT RAIN  46  44  93 S7        29.56F FOG
TOPEKA FORBES  LGT RAIN  45  43  93 S8        29.55F FOG
$$



USA.gov is the U.S. government's official web portal to all federal, state and local government web resources and services.